Regional Weather Roundup
Issued by NWS

Home | Current Version | Previous Version | Text Only | Print | Product List | Glossary On
Versions: 1 2 3 4 5 6 7 8 9 10 11 12 13 14 15 16 17 18 19 20 21 22 23 24 25 26 27 28 29 30 31 32 33 34 35 36 37 38 39 40 41 42 43 44 45 46 47 48 49 50
000
ASUS43 KBIS 300210
RWRND

NORTH DAKOTA REGIONAL WEATHER ROUNDUP
NATIONAL WEATHER SERVICE BISMARCK ND
800 PM CST THU JAN 29 2015

NOTE: "FAIR" INDICATES FEW OR NO CLOUDS BELOW 12,000 FEET WITH NO
SIGNIFICANT WEATHER AND/OR OBSTRUCTIONS TO VISIBILITY.


NDZ001>003-009>011-017-300300-
NORTHWEST NORTH DAKOTA

CITY           SKY/WX    TMP DP  RH WIND       PRES   REMARKS
WILLISTON      CLEAR     26  20  77 CALM      30.34F
MINOT          CLEAR     13   9  84 E5        30.43F WCI   5
MINOT AFB      CLEAR     11  11  98 SE9       30.44F WCI  -2
$$

NDZ018>021-031>035-040>046-300300-
SOUTHWEST NORTH DAKOTA

CITY           SKY/WX    TMP DP  RH WIND       PRES   REMARKS
BISMARCK       CLEAR     18  16  92 SE7       30.47S WCI   9
DICKINSON      CLEAR     24  17  74 SE9       30.34F WCI  14
GARRISON         N/A     18  15  88 SE8       30.42F WCI   8
HETTINGER ARPT CLEAR     25  17  72 SE3       30.38S
$$

NDZ004>008-012>016-024-026-027-054-300300-
NORTHEAST NORTH DAKOTA

CITY           SKY/WX    TMP DP  RH WIND       PRES   REMARKS
GRAND FORKS    PTCLDY     4   0  83 N3        30.58R
GRND FRKS AFB  PTCLDY     4  -1  80 N3        30.58S
DEVILS LAKE    CLOUDY    10   3  72 E3        30.51R
$$

NDZ022-023-025-028>030-036>039-047>053-300300-
SOUTHEAST NORTH DAKOTA

CITY           SKY/WX    TMP DP  RH WIND       PRES   REMARKS
FARGO          FAIR      10   3  73 NE9       30.57R WCI  -3
JAMESTOWN      CLOUDY    17  11  77 NW5       30.50S WCI  10
$$




USA.gov is the U.S. government's official web portal to all federal, state and local government web resources and services.